Regional Weather Roundup
Issued by NWS Grand Forks, ND

Home | Current Version | Previous Version | Text Only | Print | Product List | Glossary Off
Versions: 1 2 3 4 5 6 7 8 9 10 11 12 13 14 15 16 17 18 19 20 21 22 23 24 25 26 27 28 29 30 31 32 33 34 35 36 37 38 39 40 41 42 43 44 45 46 47 48 49 50

000
ASUS43 KFGF 302310
RWRFGF
PRAIRIE TO PINES  WEATHER ROUNDUP
NATIONAL WEATHER SERVICE EASTERN NORTH DAKOTA/GRAND FORKS ND
600 PM CDT SUN AUG 30 2015

 **SATELLITE DATA USED TO AUGMENT SKY COVER AT AUTOMATED STATIONS**
 *****  WEATHER ACROSS EASTERN NORTH DAKOTA  *****

CITY           SKY/WX    TMP DP  RH WIND       PRES   REMARKS
GRAND FORKS    CLOUDY    84  68  58 S14G26    29.67S
GRAND FRKS AFB PTSUNNY   84  71  64 S18G25    29.67S
GRAND FRKS NWS   N/A     84 N/A N/A S16         N/A
DEVILS LAKE    PTSUNNY   86  66  51 S13       29.64S
FARGO          MOSUNNY   86  68  54 SE15G28   29.72F
WAHPETON ARPT  CLEAR     82  66  57 SE14G21   29.77F
$$

 ***** WEATHER ACROSS CENTRAL AND WESTERN NORTH DAKOTA  *****

CITY           SKY/WX    TMP DP  RH WIND       PRES   REMARKS
BISMARCK       MOSUNNY   98  58  26 S7        29.63F HX  97
MINOT          CLOUDY    84  56  38 W15G23    29.65R HAZE
JAMESTOWN      PTSUNNY   84  68  58 S17G23    29.68F
MINOT AFB      PTSUNNY   85  58  38 NW15      29.64R
GARRISON         N/A     90  54  29 NW12G24   29.67R
WILLISTON      PTSUNNY   85  43  22 N14       29.71F
DICKINSON      MOSUNNY   87  50  27 N14       29.73  HAZE
HETTINGER      MOSUNNY   95  46  18 N12       29.73F HX  91
$$

 *****  OTHER AIRPORT OBSERVATIONS IN OUR AREA  *****

CITY           SKY/WX    TMP DP  RH WIND       PRES   REMARKS
WALHALLA       FAIR      90  72  55 MISG      29.62S HX  96
GRAFTON AIRPOR FAIR      84  72  65 S17       29.66S
VALLEY CITY AR FAIR      84  66  54 S16G22    29.72S
CANDO          NOT AVBL
CAVALIER APRT  FAIR      86  68  54 S12G21    29.63S
GWINNER        FAIR      84  64  51 S15       29.74F
SHEYENNE NWR     N/A     86  67  53 S10       29.95S
ROLLA            N/A     91  59  33 SW16G22   29.63F HX  90
 ***** THE ABOVE OBSERVATIONS ARE NON NWS ARE NOT QUALITY
       CONTROLLED AND MAY MIS-REPORT RAIN FOR SNOW...
$$

  *****  WEATHER ACROSS NORTHERN MINNESOTA  *****

CITY           SKY/WX    TMP DP  RH WIND       PRES   REMARKS
FLAG ISLAND    SUNNY     75  66  73 SE12      29.72S
WARROAD        MOSUNNY   84  73  70 S7        29.73S HX  91
ROSEAU         MOSUNNY   84  73  70 S10       29.71S HX  91
HALLOCK        MOSUNNY   84  70  61 S15G24    29.65F
THF RVR FALLS  MOSUNNY  N/A N/A N/A S15G21    29.72S
BAUDETTE       MOSUNNY   82  68  62 S9        29.75S
WASKISH        MOSUNNY   81  70  69 SE5       29.77F
CROOKSTON      MOSUNNY   84  66  54 S22       29.71F
STEPHEN NDAWN    N/A     82  70  65 S13         N/A
GREENBUSH NDAW   N/A     82  70  65 S7          N/A
$$
  *****  WEATHER ACROSS CENTRAL AND WEST MINNESOTA  *****

CITY           SKY/WX    TMP DP  RH WIND       PRES   REMARKS
FOSSTON        SUNNY     84  66  54 S8        29.77S
BEMIDJI        MOSUNNY   81  69  66 S9        29.80S
PARK RAPIDS    SUNNY     82  67  60 S14       29.83S
ELBOW LAKE     FAIR      78  69  74 SE13G21   29.82S
WADENA         SUNNY     79  68  69 S14       29.84F
DETROIT LAKES  SUNNY     81  68  65 S12       29.82S
MOORHEAD       MOSUNNY   84  68  58 S17G24    29.74F
FERGUS FALLS   MOSUNNY   81  68  65 S16       29.79S
MORRIS MN      SUNNY     81  70  69 S15       29.82F
STAPLES        SUNNY     79  66  65 S13G18    29.86S
$$
  *****  WEATHER ELSEWHERE ACROSS MINNESOTA  *****

CITY           SKY/WX    TMP DP  RH WIND       PRES   REMARKS
DULUTH         SUNNY     78  66  66 S12       29.88F
INTRNTL FALLS  MOSUNNY   81  70  69 S5        29.78F
ELY            MOSUNNY   79  66  65 SW5       29.86S
CLOQUET        SUNNY     79  64  61 S6        29.89S
WHEATON        MOSUNNY   79  68  69 SE15G24   29.80S
BRAINERD       SUNNY     78  67  68 S13       29.87F
HIBBING        MOSUNNY   82  67  60 VRB6      29.85S
ALEXANDRIA     SUNNY     79  68  69 S10       29.87F
SAINT CLOUD    MOSUNNY   79  66  64 S13       29.89S
MINNEAPOLIS    MOSUNNY   80  64  58 S13       29.92F
$$

  *****  WEATHER ACROSS SOUTH DAKOTA  *****

CITY           SKY/WX    TMP DP  RH WIND       PRES   REMARKS
SIOUX FALLS    CLOUDY    74  64  71 S15       29.91S
BROOKINGS      SUNNY     75  66  73 S16       29.90S
WATERTOWN      SUNNY     78  67  68 S16G24    29.83F
HURON          MOSUNNY   82  69  64 S17G29    29.78F
SISSETON         N/A     85  67  54 S13G20    29.76F
ABERDEEN       PTSUNNY   82  70  66 S17G24    29.74F
MITCHELL       SUNNY     82  68  62 S21G29    29.82F
PIERRE         SUNNY     96  53  23 S16G25    29.68F HAZE    HX  93
MOBRIDGE       SUNNY     94  62  34 S10       29.64S HX  94
RAPID CITY     MOSUNNY   93  59  31 NW12      29.73S HX  92
$$

  *****  SOME WEATHER IN NEARBY STATES *****

CITY           SKY/WX    TMP DP  RH WIND       PRES   REMARKS
GLASGOW MT     SUNNY     84  49  29 SW7       29.69F
GREAT FALLS MT MOSUNNY   80  34  19 W20G26    29.72F
CHEYENNE WY    PTSUNNY   88  35  15 NW7       30.03F
SCOTTSBLUFF NE SUNNY     95  51  22 E10       29.84F HX  92
OMAHA NE       MOSUNNY   76  66  71 S15       29.97F
DES MOINES IA  MOSUNNY   78  67  68 S6        29.99F
DAVENPORT IA   SUNNY     77  66  68 N3        30.02F
CHICAGO IL     MOSUNNY   74  65  73 E5        30.02S
EAU CLAIRE WI  SUNNY     75  63  66 S12       29.96S
LA CROSSE WI   MOSUNNY   75  65  70 S8        29.98F
$$

  *****  SOME NATIONAL WEATHER *****

CITY           SKY/WX    TMP DP  RH WIND       PRES   REMARKS
LA GUARDIA NY  MOCLDY    83  67  58 S9        30.00S
RALEIGH NC     CLOUDY    80  61  52 S5        30.13F
ATLANTA GA     CLOUDY    73  65  75 E13       30.09S
NEW ORLEANS LA PTSUNNY   88  68  51 SE10      29.98F HX  91
OKLAHOMA CITY  PTSUNNY   88  63  43 S6        29.94S
ALBUQUERQUE NM MOSUNNY   92  40  16 N5        30.09F
SALT LAKE CITY PTSUNNY   87  45  23 N10       29.92F
LOS ANGELES CA MOSUNNY   77  64  64 SW14      29.86F
BOISE ID       MOSUNNY   79  41  25 NW13      29.96S
SEATTLE WA     PTSUNNY   67  52  58 SW15      29.97S
$$

*** WEATHER ACROSS MANITOBA...SASKATCHEWAN AND ONTARIO ***
                ***ONTARIO***

CITY           SKY/WX    TMP DP  RH WIND       PRES   REMARKS
GERALDTON      CLOUDY    73  66  78 SW6       29.81S HAZE
THUNDER BAY    PTSUNNY   73  64  73 NE6       29.81S
SIOUX LOOKOUT  PTSUNNY   77  70  78 SE2       29.80S
TORONTO        MOCLDY    75  61  60 S9        30.00S
BIG TROUT LK   CLOUDY    61  54  77 N6        29.85R
PICKLE LAKE    CLOUDY    75  61  60 N2        29.80R
DRYDEN         SUNNY     79  68  69 S7        29.80S
KENORA         PTSUNNY   81  72  74 SE10      29.76S
$$
                *** MANITOBA***

CITY           SKY/WX    TMP DP  RH WIND       PRES   REMARKS
BRANDON        CLOUDY    88  66  48 W10       29.58F HX  90
DAUPHIN        SUNNY     79  70  73 SW6       29.57R
ISLAND LAKE    PTSUNNY   64  59  82 E8        29.77F
PILOT MOUND      N/A     91  59  33 S21G26      N/A  HX  90
THE PAS        LGT RAIN  64  63  94 E9        29.61F
THOMPSON       CLOUDY    59  52  77 VRB2      29.76S
WINNIPEG       NOT AVBL
LYNN LAKE      LGT RAIN  55  50  82 MISG      29.62R
CHURCHILL      MOSUNNY   54  41  62 SE20      29.91F
GILLAM         CLOUDY    55  50  82 E6G18     29.83F
$$
                ***SASKATCHEWAN***

CITY           SKY/WX    TMP DP  RH WIND       PRES   REMARKS
ESTEVAN        PTSUNNY   81  46  30 N15       29.69R
KINDERSLEY     MOSUNNY   81  36  19 SW25G35   29.56S
LLOYDMINSTER   MOSUNNY   75  46  35 SW12      29.49S
PRINCE ALBERT  PTSUNNY   73  52  46 S12       29.53F
REGINA         MOSUNNY   73  57  56 CALM      29.67F
YORKTON        PTSUNNY   72  52  49 N8        29.65F
N. BATTLEFORD    N/A     79  39  24 SW16G26   29.52S
LA RONGE       PTSUNNY   79  57  47 S14       29.44F
SASKATOON      MOSUNNY   81  45  28 SW20      29.57F
SWIFT CURRENT  SUNNY     81  41  24 SW24G32   29.64F
$$
NOTE: THESE ARE AUTOMATED STATIONS WITH LIMITED QUALITY CONTROL
      "FAIR" INDICATES FEW OR NO CLOUDS BELOW 12,000 FEET WITH NO
      SIGNIFICANT WEATHER AND/OR OBSTRUCTIONS TO VISIBILITY.
      SKY/WX - SKY CONDITION AND SIGNIFICANT WEATHER.
      TMP - AIR TEMPERATURE.    DP   - DEWPOINT TEMPERATURE.
      RH  - RELATIVE HUMIDITY.  PRES - PRESSURE.
      HX  - HEAT INDEX.         WCI  - WIND CHILL INDEX.
$



USA.gov is the U.S. government's official web portal to all federal, state and local government web resources and services.